EW7966 Weather Reports


time (UTC)temp
C
wind
direction
speed
KPH
gust
KPH
rain 1hr
cm
rain 24hr
cm
rain mn
cm
humidity
%
barometer
mb
20260831234007 25 113 14.5 20.9 0.00 0.05 0.00 37 1019.9
20260831233506 25 109 12.9 19.3 0.00 0.05 0.00 38 1019.8
20260831233004 25 104 11.3 19.3 0.00 0.05 0.00 38 1005.5
20260831232008 25 78 9.7 19.3 0.00 0.05 0.00 37 1020.0
20260831231505 25 98 12.9 19.3 0.00 0.05 0.00 37 1020.0
20260831231503 25 98 12.9 19.3 0.00 0.05 0.00 37 1005.8
20260831230506 25 67 9.7 17.7 0.00 0.05 0.00 38 1020.0
20260831230009 24 57 9.7 17.7 0.00 0.05 0.00 37 1020.0
20260831230004 24 57 9.7 17.7 0.00 0.05 0.00 37 1005.9
20260831225505 24 87 11.3 14.5 0.00 0.05 0.00 38 1020.1
20260831225002 24 83 6.4 12.9 0.00 0.05 0.00 37 1020.1
20260831224505 24 99 8.0 14.5 0.00 0.05 0.00 37 1020.3
20260831224503 24 99 8.0 14.5 0.00 0.05 0.00 37 1006.2
20260831224007 25 84 9.7 17.7 0.00 0.05 0.00 36 1020.3
20260831223505 25 78 6.4 17.7 0.00 0.05 0.00 34 1020.2
20260831223005 25 106 3.2 14.5 0.00 0.05 0.00 34 1020.4
20260831223003 25 106 3.2 14.5 0.00 0.05 0.00 34 1006.3
20260831222505 25 90 8.0 17.7 0.00 0.05 0.00 33 1020.5
20260831221503 25 128 1.6 14.5 0.00 0.05 0.00 32 1006.6
20260831220011 25 94 8.0 14.5 0.00 0.05 0.00 32 1020.7
20260831220003 25 94 8.0 14.5 0.00 0.05 0.00 32 1006.7
20260831215504 25 130 6.4 12.9 0.00 0.05 0.00 33 1020.7
20260831214504 25 91 4.8 14.5 0.00 0.05 0.00 35 1020.6
20260831213505 25 154 6.4 11.3 0.00 0.05 0.00 33 1020.9
20260831213003 25 124 4.8 11.3 0.00 0.05 0.00 35 1007.0
20260831212505 24 163 8.0 14.5 0.00 0.05 0.00 35 1021.1
20260831212007 24 150 4.8 14.5 0.00 0.05 0.00 35 1021.1
20260831211505 24 89 6.4 14.5 0.00 0.05 0.00 35 1021.1
20260831211503 24 89 4.8 14.5 0.00 0.05 0.00 35 1007.1
20260831211006 25 119 11.3 14.5 0.00 0.05 0.00 34 1021.2
20260831210505 25 112 9.7 14.5 0.00 0.05 0.00 35 1021.1
20260831210006 25 149 9.7 16.1 0.00 0.05 0.00 35 1021.1
20260831210003 25 149 8.0 16.1 0.00 0.05 0.00 35 1007.1
20260831205006 25 174 11.3 19.3 0.00 0.05 0.00 34 1021.3
20260831204505 24 171 11.3 16.1 0.00 0.05 0.00 34 1021.4
20260831204503 24 171 9.7 16.1 0.00 0.05 0.00 34 1007.3
20260831204005 24 148 8.0 14.5 0.00 0.05 0.00 34 1021.4
20260831203505 24 159 4.8 12.9 0.00 0.05 0.00 32 1021.5
20260831203007 24 138 4.8 16.1 0.00 0.05 0.00 34 1021.6
20260831203002 24 138 3.2 16.1 0.00 0.05 0.00 34 1007.5
20260831202504 24 169 8.0 16.1 0.00 0.05 0.00 36 1021.6
20260831202006 24 138 8.0 16.1 0.00 0.05 0.00 35 1021.6
20260831201559 24 93 11.3 17.7 0.00 0.05 0.00 36 1007.7
20260831201505 24 107 11.3 17.7 0.00 0.05 0.00 35 1021.7
20260831201007 25 134 11.3 17.7 0.00 0.05 0.00 35 1021.6
20260831200504 25 61 8.0 14.5 0.00 0.05 0.00 35 1021.7
20260831200008 24 164 6.4 16.1 0.00 0.05 0.00 34 1007.8
20260831195505 24 130 11.3 16.1 0.00 0.05 0.00 37 1021.8
20260831195007 25 128 8.0 16.1 0.00 0.05 0.00 35 1021.8
20260831194505 25 107 8.0 20.9 0.00 0.05 0.00 34 1021.9
20260831194503 25 107 6.4 20.9 0.00 0.05 0.00 34 1007.9
20260831194005 25 120 8.0 17.7 0.00 0.05 0.00 35 1021.9
20260831193505 25 96 9.7 16.1 0.00 0.05 0.00 34 1021.9
20260831193006 25 105 9.7 14.5 0.00 0.05 0.00 33 1022.0
20260831193003 25 117 9.7 14.5 0.00 0.05 0.00 33 1008.0
20260831192006 25 137 9.7 17.7 0.00 0.05 0.00 35 1022.0
20260831191506 25 46 8.0 17.7 0.00 0.05 0.00 35 1022.0
20260831191503 25 46 8.0 17.7 0.00 0.05 0.00 35 1008.0
20260831191008 25 57 6.4 17.7 0.00 0.05 0.00 35 1022.1
20260831190006 25 64 4.8 11.3 0.00 0.05 0.00 34 1022.2
20260831190003 25 64 3.2 11.3 0.00 0.05 0.00 34 1008.2
20260831185505 25 327 3.2 16.1 0.00 0.05 0.00 37 1022.3
20260831185006 25 44 9.7 16.1 0.00 0.05 0.00 35 1022.4
20260831184505 25 47 4.8 17.7 0.00 0.05 0.00 34 1022.4
20260831184503 25 47 4.8 17.7 0.00 0.05 0.00 34 1008.3
20260831184006 25 46 8.0 17.7 0.00 0.05 0.00 36 1022.4
20260831183507 24 345 6.4 14.5 0.00 0.05 0.00 38 1022.4
20260831183006 24 61 6.4 14.5 0.00 0.05 0.00 36 1022.4
20260831183004 24 61 4.8 14.5 0.00 0.05 0.00 36 1008.4
20260831182506 23 50 4.8 11.3 0.00 0.05 0.00 36 1022.6
20260831182007 23 56 4.8 11.3 0.00 0.05 0.00 35 1022.6
20260831181504 24 62 6.4 9.7 0.00 0.05 0.00 36 1022.7
20260831181007 24 19 3.2 12.9 0.00 0.05 0.00 34 1022.7
20260831180505 24 19 1.6 12.9 0.00 0.05 0.00 36 1022.8
20260831180007 24 20 8.0 12.9 0.00 0.05 0.00 34 1022.8
20260831180004 24 20 8.0 12.9 0.00 0.05 0.00 34 1008.7
20260831175008 24 42 4.8 9.7 0.00 0.05 0.00 36 1022.7
20260831174505 24 340 1.6 9.7 0.00 0.05 0.00 35 1022.8
20260831174503 24 340 1.6 9.7 0.00 0.05 0.00 35 1008.7
20260831174006 24 340 4.8 11.3 0.00 0.05 0.00 37 1022.7
20260831173504 24 49 8.0 12.9 0.00 0.05 0.00 36 1022.7
20260831173002 24 25 3.2 8.0 0.00 0.05 0.00 35 1008.7
20260831172505 24 9 3.2 6.4 0.00 0.05 0.00 36 1022.8
20260831171503 23 5 1.6 6.4 0.00 0.05 0.00 39 1008.7
20260831171006 23 314 1.6 4.8 0.00 0.05 0.00 37 1022.8
20260831170504 23 181 0.0 6.4 0.00 0.05 0.00 37 1023.0
20260831170007 23 233 4.8 6.4 0.00 0.05 0.00 38 1022.8
20260831170005 23 233 3.2 6.4 0.00 0.05 0.00 38 1008.8
20260831165504 23 242 3.2 4.8 0.00 0.05 0.00 37 1022.9
20260831165007 23 54 1.6 6.4 0.00 0.05 0.00 38 1023.0
20260831164509 23 79 1.6 6.4 0.00 0.05 0.00 38 1008.9
20260831164505 23 79 1.6 6.4 0.00 0.05 0.00 38 1022.9
20260831163006 22 316 3.2 6.4 0.00 0.05 0.00 40 1022.8
20260831163003 22 316 3.2 6.4 0.00 0.05 0.00 40 1008.8
20260831162006 22 294 3.2 6.4 0.00 0.05 0.00 39 1022.7
20260831161505 22 294 3.2 6.4 0.00 0.05 0.00 39 1022.7
20260831161503 22 294 1.6 6.4 0.00 0.05 0.00 39 1008.6
20260831161007 22 294 1.6 8.0 0.00 0.05 0.00 38 1022.6
20260831160505 22 294 3.2 8.0 0.00 0.05 0.00 39 1022.6
20260831160007 22 63 3.2 6.4 0.00 0.05 0.00 38 1022.6
20260831160003 22 63 1.6 6.4 0.00 0.05 0.00 38 1008.5
20260831155505 22 215 3.2 6.4 0.00 0.05 0.00 38 1022.5
20260831155008 22 215 3.2 4.8 0.00 0.05 0.00 43 1022.5
20260831154504 21 215 1.6 6.4 0.00 0.05 0.00 44 1008.3
20260831154002 21 215 1.6 6.4 0.00 0.05 0.00 46 1022.6
20260831153505 21 215 0.0 4.8 0.00 0.05 0.00 50 1022.4
20260831153009 21 215 1.6 8.0 0.00 0.05 0.00 52 1008.2
20260831153007 21 215 1.6 8.0 0.00 0.05 0.00 52 1022.4
20260831152505 20 215 3.2 8.0 0.00 0.05 0.00 52 1022.4
20260831152006 20 215 3.2 9.7 0.00 0.05 0.00 53 1022.4
20260831151506 20 215 4.8 9.7 0.00 0.05 0.00 51 1022.4
20260831151503 20 215 3.2 9.7 0.00 0.05 0.00 51 1008.3
20260831151005 20 258 1.6 8.0 0.00 0.05 0.00 53 1022.4
20260831150506 20 205 4.8 9.7 0.00 0.05 0.00 51 1022.3
20260831150007 20 205 4.8 9.7 0.00 0.05 0.00 51 1022.4
20260831150004 20 205 3.2 9.7 0.00 0.05 0.00 51 1008.3
20260831145504 20 192 4.8 9.7 0.00 0.05 0.00 52 1022.4
20260831144558 20 235 1.6 12.9 0.00 0.05 0.00 54 1008.2
20260831144505 20 235 3.2 12.9 0.00 0.05 0.00 54 1022.4
20260831144502 20 235 3.2 12.9 0.00 0.05 0.00 54 1008.2
20260831144005 19 221 4.8 12.9 0.00 0.05 0.00 53 1022.4
20260831143505 19 223 8.0 12.9 0.00 0.05 0.00 52 1022.3
20260831143006 18 190 6.4 8.0 0.00 0.05 0.00 54 1022.3
20260831143003 18 190 4.8 8.0 0.00 0.05 0.00 54 1008.2
20260831142505 18 175 4.8 8.0 0.00 0.05 0.00 56 1022.2
20260831142006 18 175 6.4 8.0 0.00 0.05 0.00 54 1022.2
20260831141505 18 205 3.2 8.0 0.00 0.05 0.00 55 1008.1
20260831141005 17 214 3.2 9.7 0.00 0.05 0.00 55 1022.1
20260831140008 17 236 4.8 9.7 0.00 0.05 0.00 56 1022.1
20260831140003 17 236 4.8 9.7 0.00 0.05 0.00 56 1008.0
20260831135504 17 227 6.4 11.3 0.00 0.05 0.00 58 1022.1
20260831135005 17 225 6.4 11.3 0.00 0.05 0.00 57 1022.1
20260831134503 17 217 6.4 9.7 0.00 0.05 0.00 57 1007.9
20260831133506 16 236 6.4 12.9 0.00 0.05 0.00 58 1021.8
20260831133006 16 198 4.8 8.0 0.00 0.05 0.00 60 1007.8
20260831132504 16 215 3.2 9.7 0.00 0.05 0.00 61 1021.7
20260831132006 16 177 4.8 9.7 0.00 0.05 0.00 61 1021.6
20260831131505 15 221 4.8 9.7 0.00 0.05 0.00 61 1021.5
20260831131006 15 203 4.8 8.0 0.00 0.05 0.00 62 1021.4
20260831130505 15 226 3.2 6.4 0.00 0.05 0.00 63 1021.3
20260831130007 15 226 3.2 6.4 0.00 0.05 0.00 63 1021.2
20260831130003 15 226 1.6 6.4 0.00 0.05 0.00 63 1007.2
20260831125505 15 226 3.2 6.4 0.00 0.05 0.00 63 1021.0
20260831125006 15 226 1.6 4.8 0.00 0.05 0.00 62 1021.0
20260831124504 15 226 0.0 6.4 0.00 0.05 0.00 62 1006.9
20260831124005 15 226 3.2 9.7 0.00 0.05 0.00 61 1020.9
20260831123504 15 226 3.2 9.7 0.00 0.05 0.00 62 1020.8
20260831123005 15 232 4.8 11.3 0.00 0.05 0.00 62 1020.7
20260831123003 15 232 3.2 11.3 0.00 0.05 0.00 62 1006.7
20260831122504 15 229 4.8 11.3 0.00 0.05 0.00 62 1020.7
20260831122006 15 233 3.2 8.0 0.00 0.05 0.00 63 1020.7
20260831121505 14 233 3.2 9.7 0.00 0.05 0.00 64 1020.6
20260831120506 14 229 1.6 4.8 0.00 0.05 0.00 65 1020.7
20260831120007 14 229 3.2 4.8 0.00 0.05 0.00 65 1020.9
20260831120004 14 229 1.6 4.8 0.00 0.05 0.00 65 1006.8
20260831115006 13 229 3.2 6.4 0.00 0.05 0.00 67 1020.7
20260831114505 13 229 3.2 4.8 0.00 0.05 0.00 68 1006.6
20260831114004 13 229 1.6 3.2 0.00 0.05 0.00 68 1020.6
20260831113007 13 229 1.6 4.8 0.00 0.05 0.00 67 1020.6
20260831112504 14 229 1.6 4.8 0.00 0.05 0.00 67 1020.6
20260831112007 14 229 0.0 4.8 0.00 0.05 0.00 67 1020.5
20260831111505 14 229 1.6 8.0 0.00 0.05 0.00 66 1020.5
20260831111503 14 229 1.6 8.0 0.00 0.05 0.00 66 1006.3
20260831111005 15 229 1.6 8.0 0.00 0.05 0.00 65 1020.5
20260831110505 15 229 3.2 8.0 0.00 0.05 0.00 65 1020.5
20260831110006 15 217 3.2 9.7 0.00 0.05 0.00 65 1020.4
20260831105505 15 232 4.8 9.7 0.00 0.05 0.00 65 1020.4
20260831105004 15 202 4.8 9.7 0.00 0.05 0.00 65 1020.4
20260831104505 15 220 4.8 11.3 0.00 0.05 0.00 65 1020.3
20260831104503 15 220 4.8 11.3 0.00 0.05 0.00 65 1006.1
20260831104005 15 246 1.6 6.4 0.00 0.05 0.00 65 1020.3
20260831103505 15 246 3.2 9.7 0.00 0.05 0.00 63 1020.3
20260831103005 15 236 6.4 12.9 0.00 0.05 0.00 62 1020.4
20260831103003 15 236 6.4 12.9 0.00 0.05 0.00 62 1006.2
20260831102504 15 234 4.8 12.9 0.00 0.05 0.00 63 1020.4
20260831102006 15 243 1.6 11.3 0.00 0.05 0.00 63 1020.3
20260831101503 15 202 1.6 11.3 0.00 0.05 0.00 63 1006.0
20260831101005 15 257 3.2 11.3 0.00 0.05 0.00 64 1020.3
20260831100504 15 246 4.8 11.3 0.00 0.05 0.00 65 1020.3
20260831100006 15 240 3.2 6.4 0.00 0.05 0.00 66 1020.3
20260831100004 15 240 3.2 6.4 0.00 0.05 0.00 66 1006.0
20260831095504 15 240 3.2 6.4 0.00 0.05 0.00 66 1020.3
20260831095005 15 240 1.6 8.0 0.00 0.05 0.00 65 1020.3
20260831094505 15 259 3.2 11.3 0.00 0.05 0.00 66 1020.3
20260831094004 15 183 6.4 11.3 0.00 0.05 0.00 66 1020.3
20260831093505 15 220 3.2 8.0 0.00 0.05 0.00 67 1020.3
20260831093005 15 209 3.2 8.0 0.00 0.05 0.00 68 1020.3
20260831093003 15 209 1.6 8.0 0.00 0.05 0.00 68 1006.1
20260831092505 15 209 3.2 11.3 0.00 0.05 0.00 68 1020.3
20260831091504 15 211 3.2 9.7 0.00 0.05 0.00 68 1020.3
20260831091006 15 188 4.8 9.7 0.00 0.05 0.00 69 1020.3
20260831090506 15 202 4.8 9.7 0.00 0.05 0.00 70 1020.3
20260831090005 15 229 4.8 9.7 0.00 0.05 0.00 70 1020.3
20260831090003 15 229 4.8 9.7 0.00 0.05 0.00 70 1006.0
20260831085504 15 242 4.8 9.7 0.00 0.05 0.00 71 1020.3
20260831085006 14 200 3.2 6.4 0.00 0.05 0.00 71 1020.4
20260831084503 14 200 1.6 6.4 0.00 0.05 0.00 73 1006.2
20260831084005 13 200 3.2 6.4 0.00 0.05 0.00 74 1020.4
20260831083505 13 200 1.6 6.4 0.00 0.05 0.00 74 1020.4
20260831083007 13 200 0.0 6.4 0.00 0.05 0.00 74 1006.2
20260831082005 14 200 4.8 8.0 0.00 0.05 0.00 72 1020.5
20260831081505 14 200 4.8 6.4 0.00 0.05 0.00 73 1020.5
20260831081503 14 200 4.8 6.4 0.00 0.05 0.00 73 1006.3
20260831080504 13 200 3.2 4.8 0.00 0.05 0.00 75 1020.7
20260831080006 13 200 3.2 6.4 0.00 0.05 0.00 75 1020.7
20260831080003 13 200 1.6 6.4 0.00 0.05 0.00 75 1006.5
20260831075504 13 200 3.2 6.4 0.00 0.05 0.00 77 1020.7
20260831075006 13 200 3.2 6.4 0.00 0.05 0.00 77 1020.9
20260831074504 13 200 3.2 6.4 0.00 0.05 0.00 78 1021.0
20260831074006 13 200 3.2 6.4 0.00 0.05 0.00 79 1021.0
20260831073504 13 200 1.6 4.8 0.00 0.05 0.00 78 1020.9
20260831073009 13 200 1.6 6.4 0.00 0.05 0.00 79 1006.6
20260831073005 13 200 1.6 6.4 0.00 0.05 0.00 79 1020.8
20260831072504 13 200 3.2 6.4 0.00 0.05 0.00 79 1020.9
20260831072006 13 200 3.2 4.8 0.00 0.05 0.00 78 1020.7
20260831071504 13 200 3.2 8.0 0.00 0.05 0.00 78 1020.8
20260831071502 13 200 1.6 8.0 0.00 0.05 0.00 78 1006.5
20260831070505 13 237 1.6 6.4 0.00 0.05 0.00 79 1021.0
20260831070004 13 237 1.6 8.0 0.00 0.05 0.00 78 1006.8
20260831065504 14 237 4.8 8.0 0.00 0.05 0.00 78 1021.2
20260831065005 14 192 0.0 4.8 0.00 0.05 0.00 77 1021.2
20260831064506 14 192 0.0 4.8 0.00 0.05 0.00 77 1021.2
20260831064503 14 192 0.0 4.8 0.00 0.05 0.00 77 1006.9
20260831064005 14 192 1.6 3.2 0.00 0.05 0.00 76 1021.2
20260831063504 15 192 0.0 4.8 0.00 0.05 0.00 76 1021.4
20260831063008 15 192 1.6 8.0 0.00 0.05 0.00 74 1006.9
20260831063005 15 192 1.6 8.0 0.00 0.05 0.00 74 1021.2
20260831062505 15 192 3.2 11.3 0.00 0.05 0.00 73 1021.3
20260831062006 15 192 6.4 14.5 0.00 0.05 0.00 72 1021.4
20260831061505 15 151 6.4 17.7 0.00 0.05 0.00 73 1021.5
20260831061503 15 151 6.4 17.7 0.00 0.05 0.00 73 1007.0
20260831061005 15 173 12.9 17.7 0.00 0.05 0.00 76 1021.7
20260831060506 14 148 9.7 12.9 0.00 0.05 0.00 78 1021.9
20260831060007 14 191 6.4 9.7 0.03 0.05 0.00 79 1022.1
20260831060004 14 191 4.8 9.7 0.03 0.05 0.00 79 1007.7
20260831055006 14 189 4.8 12.9 0.05 0.05 0.05 80 1022.1
20260831054510 14 201 4.8 12.9 0.05 0.05 0.05 81 1007.6
20260831054506 14 201 4.8 12.9 0.05 0.05 0.05 81 1022.0
20260831054007 14 126 4.8 9.7 0.05 0.05 0.05 81 1021.8
20260831053505 14 126 3.2 6.4 0.05 0.05 0.05 82 1021.6
20260831053006 14 126 4.8 6.4 0.05 0.05 0.05 82 1021.6
20260831053004 14 126 3.2 6.4 0.05 0.05 0.05 82 1007.1
20260831051508 15 126 6.4 16.1 0.05 0.05 0.05 80 1007.3
20260831051506 15 126 8.0 16.1 0.05 0.05 0.05 80 1021.7
20260831051007 15 127 14.5 16.1 0.05 0.05 0.05 78 1021.9
20260831050505 16 296 3.2 8.0 0.05 0.05 0.05 74 1022.7
20260831050006 16 296 4.8 9.7 0.03 0.03 0.03 72 1022.6
20260831050004 16 296 4.8 9.7 0.03 0.03 0.03 72 1008.2
20260831045504 17 199 1.6 17.7 0.00 0.00 0.00 68 1023.3
20260831045005 17 249 4.8 22.5 0.00 0.00 0.00 64 1023.4
20260831044506 17 203 8.0 20.9 0.00 0.00 0.00 61 1023.4
20260831044504 17 203 8.0 20.9 0.00 0.00 0.00 61 1009.1
20260831044006 17 257 11.3 22.5 0.00 0.00 0.00 60 1023.2
20260831043506 17 240 8.0 22.5 0.00 0.00 0.00 63 1022.9
20260831043003 17 192 9.7 17.7 0.00 0.00 0.00 63 1008.1
20260831042505 16 226 9.7 16.1 0.00 0.00 0.00 67 1022.2
20260831041506 16 186 4.8 12.9 0.00 0.00 0.00 68 1021.7
20260831041504 16 186 4.8 12.9 0.00 0.00 0.00 68 1007.2
20260831041006 16 191 6.4 12.9 0.00 0.00 0.00 71 1021.6
20260831040505 15 184 4.8 8.0 0.00 0.00 0.00 73 1021.5
20260831040008 15 184 1.6 6.4 0.00 0.00 0.00 74 1021.5
20260831040004 15 184 1.6 6.4 0.00 0.00 0.00 74 1007.0
20260831035505 15 184 4.8 6.4 0.00 0.00 0.00 74 1021.5
20260831035006 15 184 3.2 6.4 0.00 0.00 0.00 74 1021.6
20260831034505 16 223 1.6 6.4 0.00 0.00 0.00 74 1021.5
20260831034007 16 223 3.2 6.4 0.00 0.00 0.00 74 1021.5
20260831033505 16 200 3.2 8.0 0.00 0.00 0.00 73 1021.4
20260831033006 16 200 3.2 8.0 0.00 0.00 0.00 74 1021.4
20260831033004 16 200 3.2 8.0 0.00 0.00 0.00 74 1006.9
20260831032505 16 200 3.2 6.4 0.00 0.00 0.00 74 1021.3
20260831032007 16 200 4.8 6.4 0.00 0.00 0.00 74 1021.2
20260831031505 16 200 3.2 6.4 0.00 0.00 0.00 75 1021.3
20260831031503 16 200 3.2 6.4 0.00 0.00 0.00 75 1006.8
20260831030505 16 204 3.2 8.0 0.00 0.00 0.00 76 1021.3
20260831030008 16 204 4.8 8.0 0.00 0.00 0.00 76 1021.3
20260831030005 16 204 3.2 8.0 0.00 0.00 0.00 76 1006.8
20260831025505 16 204 1.6 8.0 0.00 0.00 0.00 76 1021.1
20260831025005 16 204 3.2 8.0 0.00 0.00 0.00 76 1021.0
20260831024505 16 204 3.2 4.8 0.00 0.00 0.00 75 1020.8
20260831024005 16 204 1.6 6.4 0.00 0.00 0.00 75 1020.7
20260831023504 16 204 1.6 6.4 0.00 0.00 0.00 75 1020.7
20260831023004 16 204 1.6 4.8 0.00 0.00 0.00 76 1006.2
20260831022505 16 204 3.2 4.8 0.00 0.00 0.00 77 1020.6
20260831022006 16 204 1.6 4.8 0.00 0.00 0.00 77 1020.3
20260831021505 16 204 1.6 4.8 0.00 0.00 0.00 75 1020.3
20260831021503 16 204 1.6 4.8 0.00 0.00 0.00 75 1005.7
20260831021006 16 204 0.0 3.2 0.00 0.00 0.00 74 1020.1
20260831020505 16 204 1.6 3.2 0.00 0.00 0.00 73 1020.1
20260831020007 16 204 1.6 3.2 0.00 0.00 0.00 74 1020.1
20260831020004 16 204 0.0 3.2 0.00 0.00 0.00 74 1005.5
20260831015505 16 204 1.6 3.2 0.00 0.00 0.00 75 1020.0
20260831015005 16 204 1.6 3.2 0.00 0.00 0.00 74 1019.9
20260831014505 16 204 1.6 4.8 0.00 0.00 0.00 73 1019.9
20260831014006 17 204 1.6 4.8 0.00 0.00 0.00 73 1019.8
20260831013504 17 204 3.2 4.8 0.00 0.00 0.00 72 1019.9
20260831013004 17 204 1.6 4.8 0.00 0.00 0.00 71 1005.2
20260831012505 17 204 1.6 3.2 0.00 0.00 0.00 71 1019.9
20260831012006 17 204 1.6 4.8 0.00 0.00 0.00 71 1019.9
20260831011504 17 204 1.6 8.0 0.00 0.00 0.00 71 1020.0
20260831011006 17 204 4.8 8.0 0.00 0.00 0.00 71 1020.0
20260831010506 17 204 3.2 9.7 0.00 0.00 0.00 70 1020.1
20260831010007 17 204 3.2 9.7 0.00 0.00 0.00 70 1020.1
20260831010004 17 204 3.2 9.7 0.00 0.00 0.00 70 1005.4
20260831005504 17 234 3.2 8.0 0.00 0.00 0.00 70 1020.2
20260831004505 17 200 3.2 4.8 0.00 0.00 0.00 71 1020.1
20260831004503 17 200 3.2 4.8 0.00 0.00 0.00 71 1005.4
20260831004006 17 200 3.2 8.0 0.00 0.00 0.00 70 1020.3
20260831003003 17 183 3.2 6.4 0.00 0.00 0.00 70 1005.6
20260831002505 17 325 3.2 6.4 0.00 0.00 0.00 70 1020.4
20260831002006 17 325 3.2 3.2 0.00 0.00 0.00 71 1020.5
20260831001505 17 325 0.0 3.2 0.00 0.00 0.00 71 1020.5
20260831001006 17 325 1.6 16.1 0.00 0.00 0.00 71 1020.4
20260831000507 17 325 6.4 17.7 0.00 0.00 0.00 71 1020.5
20260831000007 17 299 9.7 17.7 0.00 0.00 0.00 70 1021.0
20260831000005 17 299 8.0 17.7 0.00 0.00 0.00 70 1006.0
20260830235505 17 117 4.8 9.7 0.00 0.00 0.00 70 1021.1
20260830234506 16 90 4.8 6.4 0.00 0.00 0.00 74 1020.8
20260830234504 16 90 3.2 6.4 0.00 0.00 0.00 74 1005.8